Location: Palo Alto
(37.4420°N, 122.1420°W)
Time: 07:21:34
(UTC-07:00)

ARGOS - Visible Passes

Search period start: 28 July 2014 00:00
Search period end: 07 August 2014 00:00
Orbit: 821 x 835 km, 98.8° (Epoch: 27 July)

Date Brightness Start Highest point End Pass type
(mag) Time Alt. Az. Time Alt. Az. Time Alt. Az.
28 Jul 5.1 21:10:05 10° E 21:12:34 13° ENE 21:15:03 10° NNE visible
28 Jul 3.2 22:50:55 54° S 22:52:06 76° WSW 22:57:29 10° NNW visible
29 Jul 3.1 22:32:20 50° SE 22:33:43 74° ENE 22:39:04 10° N visible
30 Jul 5.5 00:13:52 12° W 00:14:27 12° W 00:16:26 10° WNW visible
30 Jul 3.5 22:13:45 37° ESE 22:15:22 49° ENE 22:20:31 10° N visible
30 Jul 5.1 23:55:17 18° WSW 23:55:50 19° W 23:59:32 10° NW visible
31 Jul 4.0 21:55:10 26° ESE 21:57:04 34° ENE 22:01:50 10° N visible
31 Jul 4.5 23:36:42 27° WSW 23:37:16 28° W 23:41:50 10° NW visible
01 Aug 4.5 21:36:36 18° E 21:38:50 23° ENE 21:42:58 10° NNE visible
01 Aug 3.9 23:18:08 40° WSW 23:18:46 42° W 23:23:50 10° NNW visible
02 Aug 4.9 21:18:01 12° E 21:20:38 16° ENE 21:23:47 10° NNE visible
02 Aug 3.3 22:59:33 57° SW 23:00:18 63° WSW 23:05:38 10° NNW visible
03 Aug 5.2 21:01:23 10° ENE 21:02:30 11° ENE 21:03:38 10° NE visible
03 Aug 3.0 22:40:59 63° SSE 22:41:53 87° ENE 22:47:17 10° NNW visible
04 Aug 3.2 22:22:24 49° ESE 22:23:31 59° ENE 22:28:48 10° N visible
05 Aug 5.3 00:03:56 16° W 00:04:06 16° W 00:07:14 10° NW visible
05 Aug 3.8 22:03:50 34° ESE 22:05:12 40° ENE 22:10:11 10° N visible
05 Aug 4.8 23:45:22 23° W 23:45:31 24° W 23:49:46 10° NW visible
06 Aug 4.3 21:45:16 23° E 21:46:56 27° ENE 21:51:24 10° N visible
06 Aug 4.2 23:26:48 35° WSW 23:26:59 35° W 23:31:53 10° NNW visible
